STARLINK-35397

Last updated on Mon Oct 20 2025 00:02:07 GMT+0000 (Coordinated Universal Time)

1 65825U 25221C 25292.25002315 -.01559399 00000+0 -28654-1 0 9994 2 65825 53.1606 27.8494 0001128 86.8243 241.9025 15.51582476 4434
UTC large
Height (km)
Speed (km/s)
/
Latitude / Longitude
Inclination (degrees)
Orbital Period (minutes)
Azimuth
Elevation
Range (km)
Doppler Factor

Next 0 passes for location: London (51.5072 / 0.1276)

Sorry there are no passes over London.